CZ-3C DEB, 40204

Orbit data source: Space-Track

CZ-3C DEB, 40204 is space debris originally from a launch on Fri, 24 Feb 2012 UTC launched from the Xichang Space Center, China (XSC). Debris objects in space refer to the collection of defunct objects orbiting the Earth. Examples of debris include non-operational satellites, rocket bodies, and fragments generated from explosions, collisions, or faulty payload assembly.

Loading next visibility...
CZ-3C DEB details
Identifier
40204, 2012-008P
Orbit
Molniya
Last TLE update3 days ago
Origin
Flag of CNCASC (CN / PRC)
ManufacturerCALT
MissionSpacecraft
Bus & MotorUnknown
MassUnknown
Launch date (UTC)
2012-02-24 (13 years ago)
Launch vehicleUnknown
Launch site
Xichang Space Center, China (XSC)
Object type
Payload
Rocket body
Debris
Shape & HBRUnknown
Radar Cross SectionMedium (>0.1 m² and <1 m²)

Expand to show TLE details & history

TLE from 3 days ago
0 CZ-3C DEB
1 40204U 12008P   24345.71565199 -.00000058  00000-0 -25213-3 0  9993
2 40204  19.9373 207.9880 7115582 233.9532  37.9440  2.26995421 84148
Epoch: 2024-12-10T17:10Z
Definitive object data (Epoch: 2024-12-10T17:10:32.331Z)
Latitude0.00004°
Longitude-129.47739°
Altitude14,407.148 km
Speed4.696 km/s
True Right ascension13h 52m 18s
True Declination0° 00' 00"
Sunlit
Object was in daylight at TLE epoch
Visualization TLE readout
Latitude10.68668°
Longitude-99.14881°
Altitude28,758.618 km
Speed2.528 km/s
Apparent Right ascension16h 23m 27s
Apparent Declination3° 51' 00"
Sunlit
Object is in daylight
Visualization observer readout
Local Sidereal Time08:48:14
Azimuth71.25° E
Elevation-15.412°
Doppler factor1
Orbital elements
Apogee altitude35,487.576 km
Perigee altitude677.318 km
Semi-major axis24,460.584 km
Eccentricity0.7115582
Inclination19.9373°
RAAN207.988°
Arg. of periapsis233.9532°
True anomaly126.06224°
Mean anomaly37.944°
Eccentric anomaly77.79122°
Mean motion0.56734 °/min
BSTAR-0.00025213
Orbital period634.54 mins
Loading maneuver chart data...
Loading historical data...
Loading historical data...
Loading historical data...
Loading historical data...
Loading historical data...
Loading historical data...
Loading historical data...

CZ-3C DEB Visibility forecast

Observer location: undefined°, undefined

Span
Click to sort rows by Start time (UTC) header in descending order
Start Az.
Max El. time (UTC)
Max El. Az.
Max El.
End time (UTC)
End Az.
69 mins2024-12-13 14:48:20.392Z81.263° E2024-12-13 15:26:20.392Z82.009° E10.945°2024-12-13 15:57:20.392Z81.93° E
372 mins2024-12-13 19:17:20.392Z247.47° WSW2024-12-13 21:07:20.392Z254.431° W23.694°2024-12-14 01:29:20.392Z278.775° WNW
|